Terminal Aerodrome Forecast
Issued by NWS

Current Version | Previous Version | Graphics & Text | Print | Product List | Glossary On
Versions: 1 2 3 4 5 6 7 8 9 10 11 12 13 14 15 16 17
000
FTUS41 KPBZ 210538
TAFHLG
TAF
KHLG 210538Z 2106/2206 31004KT P6SM OVC015
     FM210900 26003KT 4SM BR OVC008
     FM211400 33006KT P6SM BKN015
     FM211700 33006KT P6SM BKN035=

USA.gov is the U.S. government's official web portal to all federal, state and local government web resources and services.